Flag for Seychelles Weather past 2 weeks in Victoria, Seychelles

Now
81 °F

Scattered clouds.


Feels Like: 86 °F
Forecast: 74 / 78 °F
Wind: 6 mph from East

Location: National Airport

Current Time: Jul 13, 2014 at 4:09:15 PM

Latest Report: Jul 13, 2014 at 3:00 PM


Visibility: N/A

Pressure: 29.86 "Hg

Humidity: 84%

Dew point: 75 °F

Location of VictoriaLocation

Historic Weather in Victoria — Graph

°F

Victoria temperature yesterday

Maximum temperature yesterday: 84 °F (at 11:00 AM)
Minimum temperature yesterday: 79 °F (at 12:00 AM)
Average temperature yesterday: 80 °F

Past Weeks' High & Low Weather Summary

 TemperatureHumidityPressure
High104 °F (Jul 4, 2:00 PM)94% (Jul 2, 7:00 PM)30.04 "Hg (Jul 2, 7:00 PM)
Low73 °F (Jul 10, 5:00 AM)16% (Jul 4, 2:00 PM)29.80 "Hg (Jul 4, 1:00 PM)
Average80 °F78%29.91 "Hg
* Reported Jun 28 3:00 PM — Jul 13 3:00 PM, Victoria, Weather by CustomWeather, © 2014

Note: Actual official high and low records may vary slightly from our data, if they occured in-between our weather recording intervals... More about our weather records

Advertising

Victoria weather history for previous 24 hours

 ConditionsComfort  
Time TempWeatherWind HumidityBarometerVisibility
3:00 PM
Jul 13
81 °FScattered clouds.6 mph84%29.86 "HgN/A
2:00 PM79 °FScattered clouds.2 mph89%29.89 "HgN/A
1:00 PM79 °FSprinkles. Partly sunny.6 mph84%29.89 "HgN/A
12:00 PM79 °FScattered showers. Partly sunny.6 mph89%29.92 "HgN/A
11:00 AM82 °FScattered showers. Partly sunny.7 mph79%29.92 "HgN/A
10:00 AM81 °FPartly sunny.No wind84%29.92 "HgN/A
9:00 AM79 °FPartly sunny.No wind89%29.92 "HgN/A
8:00 AM77 °FPartly sunny.8 mph89%29.89 "HgN/A
7:00 AM77 °FPartly sunny.8 mph89%29.89 "HgN/A
6:00 AM77 °FSprinkles. Passing clouds.7 mph89%29.89 "HgN/A
5:00 AM77 °FSprinkles. Passing clouds.9 mph83%29.89 "HgN/A
4:00 AM79 °FSprinkles. Passing clouds.8 mph74%29.86 "HgN/A
3:00 AM77 °FPassing clouds.12 mph79%29.86 "HgN/A
2:00 AM79 °FPassing clouds.14 mph79%29.89 "HgN/A
1:00 AM79 °FPassing clouds.7 mph74%29.92 "HgN/A
12:00 AM79 °FPassing clouds.12 mph70%29.92 "HgN/A
11:00 PM
Jul 12
79 °FPassing clouds.12 mph70%29.95 "HgN/A
10:00 PM79 °FPassing clouds.9 mph70%29.95 "HgN/A
9:00 PM79 °FPassing clouds.17 mph70%29.95 "HgN/A
8:00 PM79 °FPassing clouds.6 mph70%29.92 "HgN/A
7:00 PM79 °FPassing clouds.6 mph65%29.92 "HgN/A
6:00 PM79 °FPassing clouds.13 mph70%29.89 "HgN/A
5:00 PM81 °FPassing clouds.8 mph66%29.89 "HgN/A
4:00 PM81 °FScattered clouds.17 mph66%29.89 "HgN/A
Weather by CustomWeather, © 2014

See weather overviewHow to use our weather pages